DELTA 1 DEB, 7141

Orbit data source: Space-Track

DELTA 1 DEB, 7141 is space debris in SSO originally from a launch on Tue, 06 Nov 1973 UTC launched from the Air Force Western Test Range (AFWTR). Debris objects in space refer to the collection of defunct objects orbiting the Earth. Examples of debris include non-operational satellites, rocket bodies, and fragments generated from explosions, collisions, or faulty payload assembly.

Loading next visibility...
Identifier
7141, 1973-086DF
Orbit
SSO
Country
Flag of USUS
Related business
Manufacturer
Unknown
Mission
Spacecraft
Bus & Motor
Unknown
Mass
Unknown
Launch date (UTC)
1973-11-06 (53 years ago)
Launch vehicle
Unknown
Launch site
Air Force Western Test Range (AFWTR)
Object type
Payload
Rocket body
Debris
Shape & HBR
Unknown shape, 0.2 m
Radar Cross Section
Medium (>0.1 m² and <1 m²)

Expand to show TLE details & history
Last TLE update: 2 days ago

TLE from 2 days ago
0 DELTA 1 DEB
1 07141U 73086DF  26205.64517615 -.00000252  00000-0 -15278-2 0  9993
2 07141 102.0779 256.9849 0020087 231.8751 282.8791 12.40962774379691
Epoch: 2026-07-24T15:29Z
TLE epoch observation values (Epoch: 2026-07-24T15:29:03.219Z)
Latitude
24.89588°
Longitude
-91.97607°
Altitude
1,501.716 km
Speed
7.117 km/s
True Right ascension
05h 30m 37s
True Declination
24° 46' 38"
Sunlit
Object was in daylight at epoch
Visualization orbit readout
Latitude
Unknown
Longitude
Unknown
Altitude
Unknown
Speed
Unknown
Apparent Right ascension
Unknown
Apparent Declination
Unknown
Sunlit
N/A
Visualization observer readout
Local Sidereal Time
22:22:07
Azimuth
Unknown
Elevation
Unknown
Doppler factor
Unknown
Orbital elements
Apogee altitude
1,515.928 km
Perigee altitude
1,484.278 km
Semi-major axis
7,878.24 km
Eccentricity
0.00201
Inclination
102.0779°
RAAN
256.9849°
Arg. of periapsis
231.8751°
True anomaly
282.65459°
Mean anomaly
282.8791°
Eccentric anomaly
282.76686°
Mean motion
3.10384 °/min
Orbital period
115.99 mins
BSTAR
-0.0015278
Loading maneuver chart data...
Computing Atmospheric mass density...
Loading historical data...
Loading historical data...
Loading historical data...
Loading historical data...
Loading historical data...
Loading historical data...
Loading historical data...

Documentation

Showing up to 5 results
|